This demonstration page uses our WeatherBlox Daily Observations layout. Learn more.

Left ArrowRight Arrow

39.92423, -83.80882

Hourly Observations for November 8, 2018

Temp ( °F °C ) Dew Point ( °F °C ) Humidity (%) Winds ( mph kmh ) Pressure ( in mb ) Visibility ( mi km ) Precip ( " mm )
12:56 am 00:56 Clear 31 -0.6 30 -1.1 96 96 N N/A 30.29 1026 10 16.0934 N/A
2:56 am 02:56 Clear 29 -1.7 29 -1.7 100 100 N N/A 30.3 1026 10 16.0934 N/A
3:56 am 03:56 Clear 29 -1.7 29 -1.7 100 100 N N/A 30.31 1026 10 16.0934 N/A
4:56 am 04:56 Clear 27 -2.8 27 -2.8 100 100 N N/A 30.32 1027 7 11.26538 N/A
5:56 am 05:56 Clear 28 -2.2 27 -2.8 96 96 N N/A 30.33 1027 10 16.0934 N/A
6:56 am 06:56 Clear 28 -2.2 28 -2.2 100 100 N N/A 30.35 1028 10 16.0934 N/A
7:56 am 07:56 Sunny 29 -1.7 29 -1.7 100 100 N 3 6 30.37 1028 10 16.0934 N/A
8:56 am 08:56 Sunny 33 0.6 30 -1.1 89 89 N 5 7 30.38 1029 10 16.0934 N/A
9:56 am 09:56 Sunny 36 2.2 32 undefined 86 86 N 7 11 30.4 1030 10 16.0934 N/A
10:56 am 10:56 Sunny 38 3.3 32 undefined 79 79 NE 6 9 30.39 1029 10 16.0934 N/A
11:46 am 11:46 Mostly Cloudy 39 4 30 -1 70 70 ENE 8 13 30.39 1029 10 16.0934 N/A
11:56 am 11:56 Mostly Cloudy 40 4.4 30 -1.1 68 68 NNE 8 13 30.39 1029 10 16.0934 N/A
12:21 pm 12:21 Partly Cloudy 39 4 30 -1 70 70 ENE 6 9 30.39 1029 10 16.0934 N/A
12:28 pm 12:28 Mostly Cloudy 39 4 30 -1 70 70 NNE 6 9 30.36 1028 10 16.0934 N/A
12:56 pm 12:56 Cloudy 41 5 31 -0.6 67 67 VRB 3 6 30.37 1028 10 16.0934 N/A
1:56 pm 13:56 Mostly Cloudy 43 6.1 32 undefined 65 65 VRB 7 11 30.35 1028 10 16.0934 N/A
2:07 pm 14:07 Partly Cloudy 43 6 30 -1 61 61 NE 8 13 30.33 1027 10 16.0934 N/A
2:56 pm 14:56 Sunny 42 5.6 30 -1.1 62 62 ENE 6 9 30.35 1028 10 16.0934 N/A
3:56 pm 15:56 Mostly Cloudy 43 6.1 31 -0.6 63 63 E 7 11 30.34 1027 10 16.0934 N/A
4:56 pm 16:56 Sunny 41 5 31 -0.6 67 67 ENE 10 17 30.32 1027 10 16.0934 N/A
5:56 pm 17:56 Clear 37 2.8 31 -0.6 79 79 ENE 7 11 30.33 1027 10 16.0934 N/A
6:56 pm 18:56 Clear 37 2.8 32 undefined 82 82 ENE 6 9 30.31 1026 10 16.0934 N/A
8:56 pm 20:56 Mostly Cloudy 38 3.3 32 undefined 79 79 ENE 8 13 30.28 1025 10 16.0934 N/A
9:56 pm 21:56 Cloudy 37 2.8 32 undefined 82 82 ENE 10 17 30.25 1025 10 16.0934 N/A
10:56 pm 22:56 Cloudy 37 2.8 32 undefined 82 82 ENE 12 19 30.23 1024 9 14.48406 N/A
11:56 pm 23:56 Cloudy 38 3.3 33 0.6 83 83 ENE 9 15 30.21 1023 10 16.0934 N/A

Powered by AerisWeather